Regional Weather Roundup
Issued by NWS

Home | Current Version | Previous Version | Graphics & Text | Print | Product List | Glossary On
Versions: 1 2 3 4 5 6 7 8 9 10 11 12 13 14 15 16 17 18 19 20 21 22 23 24 25 26 27 28 29 30 31 32 33 34 35 36 37 38 39 40 41 42 43 44 45 46 47 48 49 50
000
ASUS43 KLSX 290107
RWRMO

WEATHER SUMMARY FOR MISSOURI
NATIONAL WEATHER SERVICE SPRINGFIELD MO
800 PM CDT MON JUL 28 2014

NOTE: "FAIR" INDICATES FEW OR NO CLOUDS BELOW 12,000 FEET WITH NO
       SIGNIFICANT WEATHER AND/OR OBSTRUCTIONS TO VISIBILITY.
       CURRENT SKY AND/OR WEATHER CONDITIONS ARE NOT AVAILABLE FOR
       CHILLICOTHE AND FARMINGTON.

MOZ001>031-035>038-043-044-053-054-290200-
...NORTHERN AND WESTERN MISSOURI...

CITY           SKY/WX    TMP DP  RH WIND       PRES   REMARKS
KANSAS CTY INT PTCLDY    73  62  68 N5        30.16S
KANSAS C DTWN  CLEAR     77  59  53 N8        30.14S
LEE`S SUMMIT   CLEAR     75  57  53 N9        30.15S
ST JOSEPH      CLEAR     74  61  63 NW5       30.15F
CHILLICOTHE      N/A     75  58  55 CALM      30.15S
KIRKSVILLE     CLEAR     70  57  63 CALM      30.15F

$$
MOZ066>068-077>081-088>096-101>105-290200-
...SOUTHWEST MISSOURI...

CITY           SKY/WX    TMP DP  RH WIND       PRES   REMARKS
SPRINGFIELD    CLEAR     76  56  49 N10       30.12S
JOPLIN         CLEAR     79  57  46 N6        30.13S

$$
MOZ032>034-039>042-045>050-055>058-069>072-290200-
...CENTRAL MISSOURI...

CITY           SKY/WX    TMP DP  RH WIND       PRES   REMARKS
COLUMBIA       CLEAR     71  55  56 N7        30.14S
JEFFERSON CITY CLEAR     74  53  48 N7        30.12S
ROLLA          PTCLDY    72  55  55 N9G20     30.11R
SEDALIA        CLEAR     72  59  63 N6        30.14S
WHITEMAN AFB   PTCLDY    73  50  44 N6        30.13S
OSAGE BEACH    CLEAR     73  55  53 N3        30.12R

$$
MOZ051-052-059>065-290200-
...EAST CENTRAL MISSOURI...

CITY           SKY/WX    TMP DP  RH WIND       PRES   REMARKS
ST LOUIS INTL  MOCLDY    72  55  55 N9        30.11S
SPIRIT OF STL  MOCLDY    73  53  49 N10       30.10S
ST CHARLES     CLEAR     69  56  62 N6        30.10S

$$
MOZ072>076-082>087-097>100-106>115-290200-
...SOUTH CENTRAL AND SOUTHEAST MISSOURI...

CITY           SKY/WX    TMP DP  RH WIND       PRES   REMARKS
CAPE GIRARDEAU PTCLDY    75  61  61 N12       30.05R
FARMINGTON     CLOUDY    72  57  60 N7        30.12R
POPLAR BLUFF   PTCLDY    77  60  55 NE6       30.03R
WEST PLAINS    CLEAR     76  56  49 N6        30.10R

$$


USA.gov is the U.S. government's official web portal to all federal, state and local government web resources and services.